TimeMDT,TemperatureF,Dew PointF,Humidity,Sea Level PressureIn,VisibilityMPH,Wind Direction,Wind SpeedMPH,Gust SpeedMPH,PrecipitationIn,Events,Conditions,WindDirDegrees,DateUTC
12:53 AM,61.0,52.0,72,29.88,10.0,NE,5.8,-,N/A,,Clear,50,2013-09-09 06:53:00
1:53 AM,61.0,51.1,70,29.88,10.0,NE,4.6,-,N/A,,Clear,40,2013-09-09 07:53:00
2:53 AM,60.1,52.0,75,29.88,10.0,Calm,Calm,-,N/A,,Mostly Cloudy,0,2013-09-09 08:53:00
3:53 AM,59.0,54.0,83,29.88,10.0,East,3.5,-,0.00,,Overcast,90,2013-09-09 09:53:00
4:53 AM,57.9,53.1,84,29.88,10.0,NE,4.6,-,N/A,,Clear,50,2013-09-09 10:53:00
5:53 AM,55.9,53.1,90,29.89,10.0,Calm,Calm,-,N/A,,Mostly Cloudy,0,2013-09-09 11:53:00
6:53 AM,57.9,54.0,87,29.89,10.0,Calm,Calm,-,0.01,,Overcast,0,2013-09-09 12:53:00
7:53 AM,59.0,55.0,87,29.90,10.0,East,3.5,-,N/A,,Overcast,80,2013-09-09 13:53:00
8:53 AM,62.1,55.9,80,29.90,10.0,NNE,3.5,-,N/A,,Overcast,30,2013-09-09 14:53:00
9:53 AM,66.0,55.0,68,29.92,10.0,Calm,Calm,-,0.00,,Overcast,0,2013-09-09 15:53:00
10:53 AM,66.9,55.0,66,29.91,10.0,Calm,Calm,-,N/A,,Overcast,0,2013-09-09 16:53:00
11:53 AM,69.1,54.0,58,29.92,10.0,SSW,6.9,-,N/A,,Overcast,210,2013-09-09 17:53:00
12:53 PM,66.9,57.9,73,29.90,10.0,Calm,Calm,-,0.01,,Mostly Cloudy,0,2013-09-09 18:53:00
1:53 PM,72.0,55.0,55,29.85,10.0,East,4.6,-,N/A,,Partly Cloudy,80,2013-09-09 19:53:00
2:53 PM,75.0,53.1,46,29.81,10.0,SE,3.5,-,N/A,,Clear,140,2013-09-09 20:53:00
3:53 PM,75.9,48.9,38,29.78,9.0,Variable,4.6,-,N/A,,Clear,0,2013-09-09 21:53:00
4:53 PM,75.9,51.1,42,29.78,10.0,West,10.4,-,N/A,,Scattered Clouds,280,2013-09-09 22:53:00
5:40 PM,73.4,51.8,47,30.00,10.0,West,8.1,-,N/A,Thunderstorm,Mostly Cloudy,270,2013-09-09 23:40:00
5:53 PM,71.1,53.1,53,29.82,9.0,Variable,5.8,-,0.01,Rain-Thunderstorm,Light Rain,0,2013-09-09 23:53:00
6:22 PM,60.8,57.2,88,30.04,2.0,South,24.2,31.1,0.06,Rain-Thunderstorm,Heavy Thunderstorms and Rain,170,2013-09-10 00:22:00
6:24 PM,60.8,57.2,88,30.04,1.2,South,19.6,31.1,0.14,Rain-Thunderstorm,Heavy Thunderstorms and Rain,170,2013-09-10 00:24:00
6:32 PM,60.8,57.2,88,30.04,0.8,South,4.6,-,0.24,Rain-Thunderstorm,Heavy Thunderstorms and Rain,190,2013-09-10 00:32:00
6:45 PM,60.8,57.2,88,30.04,1.8,ESE,9.2,-,0.34,Rain-Thunderstorm,Light Rain,110,2013-09-10 00:45:00
6:47 PM,60.8,57.2,88,30.04,3.0,East,6.9,-,0.34,Rain-Thunderstorm,Light Rain,100,2013-09-10 00:47:00
6:53 PM,61.0,57.9,90,29.86,10.0,NE,6.9,-,0.34,Rain-Thunderstorm,Light Rain,50,2013-09-10 00:53:00
7:12 PM,60.8,57.2,88,30.05,10.0,North,3.5,-,0.00,,Partly Cloudy,360,2013-09-10 01:12:00
7:46 PM,60.8,55.4,82,30.06,10.0,East,5.8,-,0.00,,Overcast,100,2013-09-10 01:46:00
7:53 PM,60.1,55.0,83,29.89,10.0,NE,5.8,-,0.00,,Overcast,40,2013-09-10 01:53:00
8:01 PM,60.8,55.4,82,30.08,10.0,NNE,4.6,-,N/A,Thunderstorm,Overcast,30,2013-09-10 02:01:00
8:09 PM,57.2,55.4,94,30.09,2.0,Variable,3.5,-,0.14,Rain-Thunderstorm,Heavy Rain,0,2013-09-10 02:09:00
8:12 PM,57.2,55.4,94,30.09,1.2,Variable,4.6,-,0.26,Rain,Heavy Rain,0,2013-09-10 02:12:00
8:24 PM,57.2,55.4,94,30.11,2.0,SSE,4.6,-,0.40,Rain,Rain,160,2013-09-10 02:24:00
8:26 PM,57.2,55.4,94,30.11,3.0,SSE,3.5,-,0.40,Rain,Rain,150,2013-09-10 02:26:00
8:40 PM,57.2,55.4,94,30.10,6.0,NNE,4.6,-,0.43,Rain,Rain,20,2013-09-10 02:40:00
8:53 PM,57.9,55.9,93,29.94,9.0,NE,5.8,-,0.44,Rain,Light Rain,40,2013-09-10 02:53:00
9:53 PM,57.9,55.9,93,29.89,10.0,ENE,12.7,-,0.04,Rain,Light Rain,60,2013-09-10 03:53:00
10:53 PM,59.0,55.0,87,29.89,10.0,ENE,3.5,-,0.00,,Scattered Clouds,70,2013-09-10 04:53:00
11:53 PM,59.0,55.9,90,29.88,10.0,Calm,Calm,-,0.00,,Overcast,0,2013-09-10 05:53:00